Time,TemperatureF,DewpointF,PressureIn,WindDirection,WindDirectionDegrees,WindSpeedMPH,WindSpeedGustMPH,Humidity,HourlyPrecipIn,Conditions,Clouds,dailyrainin,SoftwareType,DateUTC
2013-09-05 00:01:00,59.2,51.3,30.08,NW,321,0.0,0.0,75,0.00,,CLR,0.00,VWS V13.01,2013-09-05 04:01:00,
2013-09-05 00:02:00,59.2,51.3,30.08,NW,321,0.0,0.0,75,0.00,,CLR,0.00,VWS V13.01,2013-09-05 04:02:00,
2013-09-05 00:07:00,58.8,50.9,30.08,NW,321,0.0,0.0,75,0.00,,CLR,0.00,VWS V13.01,2013-09-05 04:07:00,
2013-09-05 00:12:00,58.8,51.3,30.08,NW,321,0.0,0.0,76,0.00,,CLR,0.00,VWS V13.01,2013-09-05 04:12:00,
2013-09-05 00:17:00,58.6,51.1,30.08,NW,321,0.0,0.0,76,0.00,,CLR,0.00,VWS V13.01,2013-09-05 04:17:00,
2013-09-05 00:22:00,58.3,50.4,30.08,NW,321,0.0,0.0,75,0.00,,CLR,0.00,VWS V13.01,2013-09-05 04:22:00,
2013-09-05 00:27:00,58.1,50.6,30.11,NW,321,0.0,0.0,76,0.00,,CLR,0.00,VWS V13.01,2013-09-05 04:27:00,
2013-09-05 00:32:00,57.9,50.8,30.11,NW,321,0.0,0.0,77,0.00,,CLR,0.00,VWS V13.01,2013-09-05 04:32:00,
2013-09-05 00:37:00,57.6,50.4,30.11,NW,321,0.0,0.0,77,0.00,,CLR,0.00,VWS V13.01,2013-09-05 04:37:00,
2013-09-05 00:42:00,57.6,50.4,30.11,NW,321,0.0,0.0,77,0.00,,CLR,0.00,VWS V13.01,2013-09-05 04:42:00,
2013-09-05 00:47:00,57.6,50.4,30.11,NW,321,0.0,0.0,77,0.00,,CLR,0.00,VWS V13.01,2013-09-05 04:47:00,
2013-09-05 00:52:00,57.4,50.2,30.11,NW,321,0.0,0.0,77,0.00,,CLR,0.00,VWS V13.01,2013-09-05 04:52:00,
2013-09-05 00:57:00,57.2,50.4,30.11,NW,321,0.0,0.0,78,0.00,,CLR,0.00,VWS V13.01,2013-09-05 04:57:00,
2013-09-05 01:02:00,57.0,50.2,30.11,NW,321,0.0,0.0,78,0.00,,CLR,0.00,VWS V13.01,2013-09-05 05:02:00,
2013-09-05 01:07:00,56.7,49.9,30.11,NW,321,0.0,0.0,78,0.00,,CLR,0.00,VWS V13.01,2013-09-05 05:07:00,
2013-09-05 01:12:00,56.7,50.2,30.11,NW,321,0.0,0.0,79,0.00,,CLR,0.00,VWS V13.01,2013-09-05 05:12:00,
2013-09-05 01:17:00,56.3,49.9,30.11,West,260,0.0,3.4,79,0.00,,CLR,0.00,VWS V13.01,2013-09-05 05:17:00,
2013-09-05 01:22:00,56.3,50.2,30.11,West,260,0.0,0.0,80,0.00,,CLR,0.00,VWS V13.01,2013-09-05 05:22:00,
2013-09-05 01:27:00,56.3,50.5,30.08,West,260,0.0,0.0,81,0.00,,CLR,0.00,VWS V13.01,2013-09-05 05:27:00,
2013-09-05 01:32:00,56.3,50.5,30.08,West,260,0.0,0.0,81,0.00,,CLR,0.00,VWS V13.01,2013-09-05 05:32:00,
2013-09-05 01:37:00,56.3,50.5,30.08,NNW,334,0.0,0.0,81,0.00,,CLR,0.00,VWS V13.01,2013-09-05 05:37:00,
2013-09-05 01:42:00,56.1,50.4,30.11,North,357,0.0,3.4,81,0.00,,CLR,0.00,VWS V13.01,2013-09-05 05:42:00,
2013-09-05 01:47:00,55.9,50.2,30.11,North,357,0.0,0.0,81,0.00,,CLR,0.00,VWS V13.01,2013-09-05 05:47:00,
2013-09-05 01:52:00,55.8,50.0,30.11,North,357,0.0,0.0,81,0.00,,CLR,0.00,VWS V13.01,2013-09-05 05:52:00,
2013-09-05 01:57:00,55.6,49.8,30.11,North,357,0.0,0.0,81,0.00,,CLR,0.00,VWS V13.01,2013-09-05 05:57:00,
2013-09-05 02:02:00,55.2,49.5,30.11,North,357,0.0,0.0,81,0.00,,CLR,0.00,VWS V13.01,2013-09-05 06:02:00,
2013-09-05 02:07:00,55.0,49.7,30.11,North,357,0.0,0.0,82,0.00,,CLR,0.00,VWS V13.01,2013-09-05 06:07:00,
2013-09-05 02:12:00,54.9,49.8,30.08,ENE,65,0.0,0.0,83,0.00,,CLR,0.00,VWS V13.01,2013-09-05 06:12:00,
2013-09-05 02:17:00,55.0,50.0,30.08,ENE,65,0.0,0.0,83,0.00,,,0.00,VWS V13.01,2013-09-05 06:17:00,
2013-09-05 02:22:00,54.9,49.8,30.08,ENE,65,0.0,0.0,83,0.00,,,0.00,VWS V13.01,2013-09-05 06:22:00,
2013-09-05 02:27:00,54.5,49.5,30.08,ENE,65,0.0,0.0,83,0.00,,,0.00,VWS V13.01,2013-09-05 06:27:00,
2013-09-05 02:32:00,54.1,48.8,30.08,ENE,65,0.0,0.0,82,0.00,,,0.00,VWS V13.01,2013-09-05 06:32:00,
2013-09-05 02:37:00,54.1,49.1,30.08,ENE,65,0.0,0.0,83,0.00,,,0.00,VWS V13.01,2013-09-05 06:37:00,
2013-09-05 02:42:00,54.1,49.4,30.08,ENE,65,0.0,0.0,84,0.00,,,0.00,VWS V13.01,2013-09-05 06:42:00,
2013-09-05 02:47:00,53.8,48.8,30.08,ENE,65,0.0,0.0,83,0.00,,,0.00,VWS V13.01,2013-09-05 06:47:00,
2013-09-05 02:52:00,53.8,49.1,30.08,ENE,65,0.0,0.0,84,0.00,,,0.00,VWS V13.01,2013-09-05 06:52:00,
2013-09-05 02:57:00,53.4,48.7,30.08,ENE,65,0.0,0.0,84,0.00,,,0.00,VWS V13.01,2013-09-05 06:57:00,
2013-09-05 03:02:00,53.2,48.5,30.08,ENE,65,0.0,0.0,84,0.00,,,0.00,VWS V13.01,2013-09-05 07:02:00,
2013-09-05 03:07:00,53.1,48.4,30.08,ENE,65,0.0,0.0,84,0.00,,,0.00,VWS V13.01,2013-09-05 07:07:00,
2013-09-05 03:12:00,52.7,48.0,30.08,ENE,65,0.0,0.0,84,0.00,,,0.00,VWS V13.01,2013-09-05 07:12:00,
2013-09-05 03:17:00,52.7,48.3,30.08,ENE,65,0.0,0.0,85,0.00,,,0.00,VWS V13.01,2013-09-05 07:17:00,
2013-09-05 03:22:00,52.7,48.6,30.08,ENE,65,0.0,0.0,86,0.00,,,0.00,VWS V13.01,2013-09-05 07:22:00,
2013-09-05 03:27:00,52.7,48.6,30.08,ENE,65,0.0,0.0,86,0.00,,,0.00,VWS V13.01,2013-09-05 07:27:00,
2013-09-05 03:32:00,52.5,48.2,30.08,ENE,65,0.0,0.0,85,0.00,,,0.00,VWS V13.01,2013-09-05 07:32:00,
2013-09-05 03:37:00,52.7,48.6,30.08,ENE,65,0.0,0.0,86,0.00,,,0.00,VWS V13.01,2013-09-05 07:37:00,
2013-09-05 03:42:00,52.7,49.0,30.11,North,9,0.0,0.0,87,0.00,,,0.00,VWS V13.01,2013-09-05 07:42:00,
2013-09-05 03:47:00,52.7,48.6,30.11,North,9,0.0,0.0,86,0.00,,,0.00,VWS V13.01,2013-09-05 07:47:00,
2013-09-05 03:52:00,52.5,48.5,30.11,North,9,0.0,0.0,86,0.00,,,0.00,VWS V13.01,2013-09-05 07:52:00,
2013-09-05 03:57:00,52.5,48.8,30.08,North,9,0.0,0.0,87,0.00,,,0.00,VWS V13.01,2013-09-05 07:57:00,
2013-09-05 04:02:00,52.2,48.4,30.08,WSW,253,0.0,0.0,87,0.00,,,0.00,VWS V13.01,2013-09-05 08:02:00,
2013-09-05 04:07:00,52.0,48.2,30.08,WSW,253,0.0,0.0,87,0.00,,,0.00,VWS V13.01,2013-09-05 08:07:00,
2013-09-05 04:12:00,51.6,47.9,30.08,WSW,253,0.0,0.0,87,0.00,,,0.00,VWS V13.01,2013-09-05 08:12:00,
2013-09-05 04:17:00,51.6,47.9,30.08,West,271,0.0,0.0,87,0.00,,,0.00,VWS V13.01,2013-09-05 08:17:00,
2013-09-05 04:22:00,51.6,48.2,30.08,West,271,0.0,0.0,88,0.00,,,0.00,VWS V13.01,2013-09-05 08:22:00,
2013-09-05 04:27:00,51.4,48.0,30.08,West,270,0.0,0.0,88,0.00,,,0.00,VWS V13.01,2013-09-05 08:27:00,
2013-09-05 04:32:00,51.3,47.5,30.08,West,270,0.0,0.0,87,0.00,,,0.00,VWS V13.01,2013-09-05 08:32:00,
2013-09-05 04:37:00,50.9,47.2,30.08,West,270,0.0,0.0,87,0.00,,,0.00,VWS V13.01,2013-09-05 08:37:00,
2013-09-05 04:42:00,50.7,47.0,30.11,West,271,0.0,0.0,87,0.00,,,0.00,VWS V13.01,2013-09-05 08:42:00,
2013-09-05 04:47:00,50.9,47.5,30.11,WNW,292,0.0,0.0,88,0.00,,,0.00,VWS V13.01,2013-09-05 08:47:00,
2013-09-05 04:52:00,51.1,48.0,30.11,WNW,292,0.0,0.0,89,0.00,,,0.00,VWS V13.01,2013-09-05 08:52:00,
2013-09-05 04:57:00,50.9,47.8,30.11,WNW,292,0.0,0.0,89,0.00,,,0.00,VWS V13.01,2013-09-05 08:57:00,
2013-09-05 05:02:00,50.9,47.8,30.11,WNW,292,0.0,0.0,89,0.00,,,0.00,VWS V13.01,2013-09-05 09:02:00,
2013-09-05 05:07:00,50.7,47.3,30.11,WNW,292,0.0,0.0,88,0.00,,,0.00,VWS V13.01,2013-09-05 09:07:00,
2013-09-05 05:12:00,50.5,47.4,30.11,WNW,292,0.0,0.0,89,0.00,,,0.00,VWS V13.01,2013-09-05 09:12:00,
2013-09-05 05:17:00,50.5,47.4,30.11,WNW,292,0.0,0.0,89,0.00,,,0.00,VWS V13.01,2013-09-05 09:17:00,
2013-09-05 05:22:00,50.4,47.2,30.11,WNW,292,0.0,0.0,89,0.00,,,0.00,VWS V13.01,2013-09-05 09:22:00,
2013-09-05 05:27:00,50.4,47.2,30.11,WNW,292,0.0,0.0,89,0.00,,,0.00,VWS V13.01,2013-09-05 09:27:00,
2013-09-05 05:32:00,50.4,47.2,30.11,WNW,292,0.0,0.0,89,0.00,,,0.00,VWS V13.01,2013-09-05 09:32:00,
2013-09-05 05:37:00,50.2,47.1,30.11,WNW,292,0.0,0.0,89,0.00,,,0.00,VWS V13.01,2013-09-05 09:37:00,
2013-09-05 05:42:00,50.0,46.9,30.11,WNW,292,0.0,0.0,89,0.00,,,0.00,VWS V13.01,2013-09-05 09:42:00,
2013-09-05 05:47:00,49.8,46.7,30.11,WNW,292,0.0,0.0,89,0.00,,,0.00,VWS V13.01,2013-09-05 09:47:00,
2013-09-05 05:52:00,49.8,47.0,30.11,WNW,292,0.0,0.0,90,0.00,,,0.00,VWS V13.01,2013-09-05 09:52:00,
2013-09-05 05:57:00,49.6,46.8,30.11,WNW,292,0.0,0.0,90,0.00,,,0.00,VWS V13.01,2013-09-05 09:57:00,
2013-09-05 06:02:00,49.6,46.8,30.11,WNW,292,0.0,0.0,90,0.00,,,0.00,VWS V13.01,2013-09-05 10:02:00,
2013-09-05 06:07:00,49.5,46.7,30.11,WNW,292,0.0,0.0,90,0.00,,,0.00,VWS V13.01,2013-09-05 10:07:00,
2013-09-05 06:12:00,49.6,47.1,30.11,WNW,292,0.0,0.0,91,0.00,,,0.00,VWS V13.01,2013-09-05 10:12:00,
2013-09-05 06:17:00,49.6,46.8,30.11,WNW,292,0.0,0.0,90,0.00,,,0.00,VWS V13.01,2013-09-05 10:17:00,
2013-09-05 06:22:00,49.5,46.7,30.11,WNW,292,0.0,0.0,90,0.00,,,0.00,VWS V13.01,2013-09-05 10:22:00,
2013-09-05 06:27:00,49.3,46.5,30.11,WNW,292,0.0,0.0,90,0.00,,,0.00,VWS V13.01,2013-09-05 10:27:00,
2013-09-05 06:32:00,49.3,46.8,30.11,WNW,292,0.0,0.0,91,0.00,,,0.00,VWS V13.01,2013-09-05 10:32:00,
2013-09-05 06:37:00,49.3,46.8,30.11,WNW,292,0.0,0.0,91,0.00,,,0.00,VWS V13.01,2013-09-05 10:37:00,
2013-09-05 06:42:00,49.3,46.8,30.11,WNW,292,0.0,0.0,91,0.00,,,0.00,VWS V13.01,2013-09-05 10:42:00,
2013-09-05 06:47:00,49.1,46.6,30.11,WNW,292,0.0,0.0,91,0.00,,,0.00,VWS V13.01,2013-09-05 10:47:00,
2013-09-05 06:52:00,49.1,46.6,30.11,WNW,292,0.0,0.0,91,0.00,,,0.00,VWS V13.01,2013-09-05 10:52:00,
2013-09-05 06:57:00,49.1,46.6,30.11,WNW,292,0.0,0.0,91,0.00,,,0.00,VWS V13.01,2013-09-05 10:57:00,
2013-09-05 07:02:00,49.1,46.6,30.11,WNW,292,0.0,0.0,91,0.00,,,0.00,VWS V13.01,2013-09-05 11:02:00,
2013-09-05 07:07:00,49.1,46.6,30.11,WNW,292,0.0,0.0,91,0.00,,,0.00,VWS V13.01,2013-09-05 11:07:00,
2013-09-05 07:12:00,49.3,47.1,30.11,WNW,292,0.0,0.0,92,0.00,,,0.00,VWS V13.01,2013-09-05 11:12:00,
2013-09-05 07:17:00,49.5,47.0,30.11,WNW,292,0.0,0.0,91,0.00,,,0.00,VWS V13.01,2013-09-05 11:17:00,
2013-09-05 07:22:00,50.2,47.7,30.11,WNW,292,0.0,0.0,91,0.00,,,0.00,VWS V13.01,2013-09-05 11:22:00,
2013-09-05 07:27:00,51.1,48.5,30.11,WNW,292,0.0,0.0,91,0.00,,,0.00,VWS V13.01,2013-09-05 11:27:00,
2013-09-05 07:32:00,51.6,49.1,30.11,WNW,292,0.0,0.0,91,0.00,,,0.00,VWS V13.01,2013-09-05 11:32:00,
2013-09-05 07:37:00,52.7,50.2,30.11,WNW,292,0.0,0.0,91,0.00,,,0.00,VWS V13.01,2013-09-05 11:37:00,
2013-09-05 07:42:00,53.4,50.9,30.11,WNW,292,0.0,0.0,91,0.00,,,0.00,VWS V13.01,2013-09-05 11:42:00,
2013-09-05 07:47:00,54.0,51.4,30.11,WNW,292,0.0,0.0,91,0.00,,,0.00,VWS V13.01,2013-09-05 11:47:00,
2013-09-05 07:52:00,54.9,52.3,30.11,WNW,292,0.0,0.0,91,0.00,,,0.00,VWS V13.01,2013-09-05 11:52:00,
2013-09-05 07:57:00,55.6,53.0,30.11,WNW,292,0.0,0.0,91,0.00,,,0.00,VWS V13.01,2013-09-05 11:57:00,
2013-09-05 08:02:00,56.3,53.4,30.11,WNW,292,0.0,0.0,90,0.00,,,0.00,VWS V13.01,2013-09-05 12:02:00,
2013-09-05 08:07:00,57.0,54.1,30.11,WNW,292,0.0,0.0,90,0.00,,,0.00,VWS V13.01,2013-09-05 12:07:00,
2013-09-05 08:12:00,58.1,55.5,30.11,WNW,292,0.0,0.0,91,0.00,,,0.00,VWS V13.01,2013-09-05 12:12:00,
2013-09-05 08:17:00,58.8,55.9,30.11,WNW,292,0.0,0.0,90,0.00,,,0.00,VWS V13.01,2013-09-05 12:17:00,
2013-09-05 08:22:00,59.7,56.8,30.11,WNW,292,0.0,0.0,90,0.00,,,0.00,VWS V13.01,2013-09-05 12:22:00,
2013-09-05 08:27:00,60.4,57.2,30.11,WNW,292,0.0,0.0,89,0.00,,,0.00,VWS V13.01,2013-09-05 12:27:00,
2013-09-05 08:32:00,61.2,57.3,30.11,WNW,292,0.0,0.0,87,0.00,,,0.00,VWS V13.01,2013-09-05 12:32:00,
2013-09-05 08:37:00,61.5,57.0,30.11,WNW,292,0.0,0.0,85,0.00,,,0.00,VWS V13.01,2013-09-05 12:37:00,
2013-09-05 08:42:00,62.1,57.2,30.11,WNW,292,0.0,0.0,84,0.00,,,0.00,VWS V13.01,2013-09-05 12:42:00,
2013-09-05 08:47:00,62.4,56.9,30.11,WNW,292,0.0,0.0,82,0.00,,,0.00,VWS V13.01,2013-09-05 12:47:00,
2013-09-05 08:52:00,63.3,57.0,30.11,WNW,292,0.0,0.0,80,0.00,,,0.00,VWS V13.01,2013-09-05 12:52:00,
2013-09-05 08:57:00,64.0,57.4,30.11,WNW,292,0.0,0.0,79,0.00,,SCT001,0.00,VWS V13.01,2013-09-05 12:57:00,
2013-09-05 09:02:00,64.8,57.0,30.11,ESE,123,0.0,0.0,76,0.00,,SCT001,0.00,VWS V13.01,2013-09-05 13:02:00,
2013-09-05 09:07:00,64.8,55.2,30.11,ESE,123,0.0,0.0,71,0.00,,SCT001,0.00,VWS V13.01,2013-09-05 13:07:00,
2013-09-05 09:12:00,65.1,55.1,30.11,ESE,123,0.0,0.0,70,0.00,,SCT001,0.00,VWS V13.01,2013-09-05 13:12:00,
2013-09-05 09:17:00,65.1,52.2,30.11,SSW,194,0.0,0.0,63,0.00,,CLR,0.00,VWS V13.01,2013-09-05 13:17:00,
2013-09-05 09:22:00,65.7,54.8,30.11,SSW,194,0.0,0.0,68,0.00,,CLR,0.00,VWS V13.01,2013-09-05 13:22:00,
2013-09-05 09:27:00,66.4,54.7,30.11,SE,139,2.8,2.8,66,0.00,,CLR,0.00,VWS V13.01,2013-09-05 13:27:00,
2013-09-05 09:32:00,66.7,52.9,30.11,SSE,168,3.9,3.9,61,0.00,,CLR,0.00,VWS V13.01,2013-09-05 13:32:00,
2013-09-05 09:37:00,66.9,52.6,30.11,SE,139,0.0,3.9,60,0.00,,CLR,0.00,VWS V13.01,2013-09-05 13:37:00,
2013-09-05 09:42:00,66.9,52.1,30.11,SSE,165,2.8,5.0,59,0.00,,CLR,0.00,VWS V13.01,2013-09-05 13:42:00,
2013-09-05 09:47:00,67.1,51.8,30.11,South,178,3.9,5.0,58,0.00,,CLR,0.00,VWS V13.01,2013-09-05 13:47:00,
2013-09-05 09:52:00,67.1,51.8,30.11,South,169,0.0,4.5,58,0.00,,CLR,0.00,VWS V13.01,2013-09-05 13:52:00,
2013-09-05 09:57:00,67.5,52.2,30.11,SE,139,4.5,5.0,58,0.00,,CLR,0.00,VWS V13.01,2013-09-05 13:57:00,
2013-09-05 10:02:00,68.0,52.2,30.11,SE,146,0.0,0.0,57,0.00,,CLR,0.00,VWS V13.01,2013-09-05 14:02:00,
2013-09-05 10:07:00,68.5,53.2,30.11,SW,218,3.9,3.9,58,0.00,,CLR,0.00,VWS V13.01,2013-09-05 14:07:00,
2013-09-05 10:12:00,69.1,53.2,30.11,SE,128,3.9,5.0,57,0.00,,CLR,0.00,VWS V13.01,2013-09-05 14:12:00,
2013-09-05 10:17:00,69.6,53.7,30.11,ESE,121,0.0,2.8,57,0.00,,CLR,0.00,VWS V13.01,2013-09-05 14:17:00,
2013-09-05 10:22:00,70.2,54.2,30.11,SE,124,4.5,4.5,57,0.00,,CLR,0.00,VWS V13.01,2013-09-05 14:22:00,
2013-09-05 10:27:00,70.9,54.9,30.11,ESE,123,2.8,5.0,57,0.00,,CLR,0.00,VWS V13.01,2013-09-05 14:27:00,
2013-09-05 10:32:00,71.4,52.9,30.11,SSE,151,2.8,4.5,52,0.00,,CLR,0.00,VWS V13.01,2013-09-05 14:32:00,
2013-09-05 10:37:00,71.8,53.2,30.11,WSW,244,2.8,2.8,52,0.00,,CLR,0.00,VWS V13.01,2013-09-05 14:37:00,
2013-09-05 10:42:00,72.0,52.3,30.11,South,178,0.0,3.9,50,0.00,,CLR,0.00,VWS V13.01,2013-09-05 14:42:00,
2013-09-05 10:47:00,72.5,53.4,30.11,SSE,165,5.0,5.0,51,0.00,,CLR,0.00,VWS V13.01,2013-09-05 14:47:00,
2013-09-05 10:52:00,73.0,52.8,30.11,ENE,74,0.0,3.4,49,0.00,,CLR,0.00,VWS V13.01,2013-09-05 14:52:00,
2013-09-05 10:57:00,73.8,54.0,30.11,SSE,155,5.0,5.0,50,0.00,,CLR,0.00,VWS V13.01,2013-09-05 14:57:00,
2013-09-05 11:02:00,74.3,53.4,30.11,SE,135,4.5,4.5,48,0.00,,CLR,0.00,VWS V13.01,2013-09-05 15:02:00,
2013-09-05 11:07:00,75.0,54.0,30.11,SSE,167,3.4,3.9,48,0.00,,CLR,0.00,VWS V13.01,2013-09-05 15:07:00,
2013-09-05 11:12:00,75.6,53.9,30.11,WSW,246,5.0,5.0,47,0.00,,CLR,0.00,VWS V13.01,2013-09-05 15:12:00,
2013-09-05 11:17:00,75.6,53.9,30.11,SSE,150,4.5,5.0,47,0.00,,CLR,0.00,VWS V13.01,2013-09-05 15:17:00,
2013-09-05 11:22:00,75.6,53.3,30.11,SSE,153,0.0,6.7,46,0.00,,CLR,0.00,VWS V13.01,2013-09-05 15:22:00,
2013-09-05 11:27:00,75.6,53.3,30.11,SE,138,4.5,6.7,46,0.00,,CLR,0.00,VWS V13.01,2013-09-05 15:27:00,
2013-09-05 11:32:00,76.1,53.8,30.11,SE,140,5.0,6.7,46,0.00,,CLR,0.00,VWS V13.01,2013-09-05 15:32:00,
2013-09-05 11:37:00,76.6,54.3,30.11,South,184,2.8,5.0,46,0.00,,CLR,0.00,VWS V13.01,2013-09-05 15:37:00,
2013-09-05 11:42:00,76.5,54.2,30.11,SSE,151,5.0,6.2,46,0.00,,CLR,0.00,VWS V13.01,2013-09-05 15:42:00,
2013-09-05 11:47:00,76.6,54.3,30.11,East,88,2.8,4.5,46,0.00,,CLR,0.00,VWS V13.01,2013-09-05 15:47:00,
2013-09-05 11:52:00,76.8,54.5,30.11,ESE,120,0.0,0.0,46,0.00,,CLR,0.00,VWS V13.01,2013-09-05 15:52:00,
2013-09-05 11:57:00,77.2,54.2,30.11,SE,126,3.4,3.4,45,0.00,,CLR,0.00,VWS V13.01,2013-09-05 15:57:00,
2013-09-05 12:02:00,77.5,54.5,30.11,SSW,206,2.8,6.2,45,0.00,,CLR,0.00,VWS V13.01,2013-09-05 16:02:00,
2013-09-05 12:07:00,77.9,54.9,30.11,SSE,154,4.5,5.0,45,0.00,,CLR,0.00,VWS V13.01,2013-09-05 16:07:00,
2013-09-05 12:12:00,78.4,55.4,30.11,SE,144,4.5,7.3,45,0.00,,CLR,0.00,VWS V13.01,2013-09-05 16:12:00,
2013-09-05 12:17:00,78.4,55.4,30.11,East,91,3.4,5.0,45,0.00,,CLR,0.00,VWS V13.01,2013-09-05 16:17:00,
2013-09-05 12:22:00,78.6,55.5,30.11,SE,141,0.0,3.9,45,0.00,,CLR,0.00,VWS V13.01,2013-09-05 16:22:00,
2013-09-05 12:27:00,78.6,55.5,30.11,ENE,64,4.5,6.2,45,0.00,,CLR,0.00,VWS V13.01,2013-09-05 16:27:00,
2013-09-05 12:32:00,79.0,55.8,30.11,SE,143,0.0,0.0,45,0.00,,CLR,0.00,VWS V13.01,2013-09-05 16:32:00,
2013-09-05 12:37:00,79.7,56.5,30.11,SE,141,3.9,3.9,45,0.00,,CLR,0.00,VWS V13.01,2013-09-05 16:37:00,
2013-09-05 12:42:00,79.7,56.5,30.11,West,269,4.5,5.0,45,0.00,,CLR,0.00,VWS V13.01,2013-09-05 16:42:00,
2013-09-05 12:47:00,79.7,56.5,30.11,West,260,3.4,4.5,45,0.00,,CLR,0.00,VWS V13.01,2013-09-05 16:47:00,
2013-09-05 12:52:00,79.9,56.7,30.11,West,261,0.0,0.0,45,0.00,,CLR,0.00,VWS V13.01,2013-09-05 16:52:00,
2013-09-05 12:57:00,80.2,57.0,30.11,West,260,3.4,4.5,45,0.00,,CLR,0.00,VWS V13.01,2013-09-05 16:57:00,
2013-09-05 13:02:00,80.6,56.7,30.11,SSW,209,0.0,5.0,44,0.00,,CLR,0.00,VWS V13.01,2013-09-05 17:02:00,
2013-09-05 13:07:00,81.0,57.0,30.11,WSW,256,6.7,6.7,44,0.00,,CLR,0.00,VWS V13.01,2013-09-05 17:07:00,
2013-09-05 13:12:00,81.3,57.3,30.08,NNW,340,0.0,2.8,44,0.00,,CLR,0.00,VWS V13.01,2013-09-05 17:12:00,
2013-09-05 13:17:00,81.5,57.5,30.08,West,262,5.0,5.0,44,0.00,,CLR,0.00,VWS V13.01,2013-09-05 17:17:00,
2013-09-05 13:22:00,81.7,57.7,30.08,WSW,247,3.4,4.5,44,0.00,,CLR,0.00,VWS V13.01,2013-09-05 17:22:00,
2013-09-05 13:27:00,82.0,58.0,30.08,NNE,31,0.0,0.0,44,0.00,,CLR,0.00,VWS V13.01,2013-09-05 17:27:00,
2013-09-05 13:32:00,82.2,58.2,30.08,WSW,248,3.4,7.3,44,0.00,,CLR,0.00,VWS V13.01,2013-09-05 17:32:00,
2013-09-05 13:37:00,82.4,58.3,30.08,North,6,0.0,2.8,44,0.00,,CLR,0.00,VWS V13.01,2013-09-05 17:37:00,
2013-09-05 13:42:00,82.4,58.3,30.08,WNW,286,5.0,7.3,44,0.00,,CLR,0.00,VWS V13.01,2013-09-05 17:42:00,
2013-09-05 13:47:00,82.6,58.5,30.08,West,266,0.0,0.0,44,0.00,,CLR,0.00,VWS V13.01,2013-09-05 17:47:00,
2013-09-05 13:52:00,82.4,58.3,30.08,SE,133,6.2,6.7,44,0.00,,CLR,0.00,VWS V13.01,2013-09-05 17:52:00,
2013-09-05 13:57:00,82.4,58.3,30.08,South,187,6.2,7.8,44,0.00,,CLR,0.00,VWS V13.01,2013-09-05 17:57:00,
2013-09-05 14:02:00,82.2,58.2,30.08,SE,131,4.5,7.3,44,0.00,,CLR,0.00,VWS V13.01,2013-09-05 18:02:00,
2013-09-05 14:07:00,82.4,58.3,30.08,SSE,150,6.7,6.7,44,0.00,,CLR,0.00,VWS V13.01,2013-09-05 18:07:00,
2013-09-05 14:12:00,82.4,58.3,30.08,ESE,123,0.0,3.9,44,0.00,,CLR,0.00,VWS V13.01,2013-09-05 18:12:00,
2013-09-05 14:17:00,82.8,58.7,30.08,WSW,253,5.0,5.0,44,0.00,,CLR,0.00,VWS V13.01,2013-09-05 18:17:00,
2013-09-05 14:22:00,83.3,59.1,30.08,ESE,114,3.4,3.4,44,0.00,,CLR,0.00,VWS V13.01,2013-09-05 18:22:00,
2013-09-05 14:27:00,83.3,59.1,30.08,SW,228,0.0,3.9,44,0.00,,CLR,0.00,VWS V13.01,2013-09-05 18:27:00,
2013-09-05 14:32:00,83.3,59.1,30.08,ESE,110,3.4,3.4,44,0.00,,CLR,0.00,VWS V13.01,2013-09-05 18:32:00,
2013-09-05 14:37:00,83.5,59.3,30.08,WSW,248,4.5,5.0,44,0.00,,CLR,0.00,VWS V13.01,2013-09-05 18:37:00,
2013-09-05 14:42:00,83.7,59.5,30.08,WNW,298,3.4,5.0,44,0.00,,CLR,0.00,VWS V13.01,2013-09-05 18:42:00,
2013-09-05 14:47:00,84.0,57.8,30.08,SW,217,6.2,8.4,41,0.00,,CLR,0.00,VWS V13.01,2013-09-05 18:47:00,
2013-09-05 14:52:00,84.7,58.5,30.08,North,353,5.0,7.8,41,0.00,,CLR,0.00,VWS V13.01,2013-09-05 18:52:00,
2013-09-05 14:57:00,84.6,58.3,30.05,West,270,7.8,10.9,41,0.00,,CLR,0.00,VWS V13.01,2013-09-05 18:57:00,
2013-09-05 15:02:00,84.9,58.6,30.05,West,275,10.1,12.0,41,0.00,,CLR,0.00,VWS V13.01,2013-09-05 19:02:00,
2013-09-05 15:07:00,85.1,58.8,30.05,WSW,251,6.7,7.3,41,0.00,,CLR,0.00,VWS V13.01,2013-09-05 19:07:00,
2013-09-05 15:12:00,85.3,58.9,30.05,WNW,288,5.0,10.1,41,0.00,,CLR,0.00,VWS V13.01,2013-09-05 19:12:00,
2013-09-05 15:17:00,85.3,56.8,30.05,West,281,10.9,10.9,38,0.00,,CLR,0.00,VWS V13.01,2013-09-05 19:17:00,
2013-09-05 15:22:00,85.3,58.9,30.05,WSW,243,10.9,10.9,41,0.00,,SCT055,0.00,VWS V13.01,2013-09-05 19:22:00,
2013-09-05 15:27:00,85.5,59.1,30.05,West,276,7.3,10.3,41,0.00,,SCT055,0.00,VWS V13.01,2013-09-05 19:27:00,
2013-09-05 15:32:00,85.5,59.1,30.05,WNW,292,3.9,5.0,41,0.00,,SCT055,0.00,VWS V13.01,2013-09-05 19:32:00,
2013-09-05 15:37:00,85.6,59.3,30.05,West,267,4.5,7.8,41,0.00,,SCT055,0.00,VWS V13.01,2013-09-05 19:37:00,
2013-09-05 15:42:00,85.8,59.4,30.05,West,259,7.3,12.0,41,0.00,,SCT055,0.00,VWS V13.01,2013-09-05 19:42:00,
2013-09-05 15:47:00,85.5,59.1,30.05,WNW,284,5.0,6.7,41,0.00,,SCT055,0.00,VWS V13.01,2013-09-05 19:47:00,
2013-09-05 15:52:00,85.1,56.7,30.05,WSW,250,4.5,4.5,38,0.00,,SCT055,0.00,VWS V13.01,2013-09-05 19:52:00,
2013-09-05 15:57:00,84.9,56.5,30.05,West,266,3.4,6.2,38,0.00,,CLR,0.00,VWS V13.01,2013-09-05 19:57:00,
2013-09-05 16:02:00,85.1,58.8,30.05,NW,308,7.3,10.1,41,0.00,,CLR,0.00,VWS V13.01,2013-09-05 20:02:00,
2013-09-05 16:07:00,84.9,58.6,30.05,WSW,253,8.4,8.4,41,0.00,,CLR,0.00,VWS V13.01,2013-09-05 20:07:00,
2013-09-05 16:12:00,84.9,56.5,30.05,WSW,239,7.8,7.8,38,0.00,,CLR,0.00,VWS V13.01,2013-09-05 20:12:00,
2013-09-05 16:17:00,85.1,56.7,30.05,NW,319,6.2,9.5,38,0.00,,CLR,0.00,VWS V13.01,2013-09-05 20:17:00,
2013-09-05 16:22:00,84.6,56.2,30.05,North,0,7.3,7.3,38,0.00,,CLR,0.00,VWS V13.01,2013-09-05 20:22:00,
2013-09-05 16:27:00,84.0,56.4,30.05,WNW,289,7.3,7.3,39,0.00,,CLR,0.00,VWS V13.01,2013-09-05 20:27:00,
2013-09-05 16:32:00,83.7,56.1,30.05,NNE,14,5.0,7.3,39,0.00,,CLR,0.00,VWS V13.01,2013-09-05 20:32:00,
2013-09-05 16:37:00,83.3,55.8,30.05,NW,311,9.5,9.5,39,0.00,,CLR,0.00,VWS V13.01,2013-09-05 20:37:00,
2013-09-05 16:42:00,83.7,56.1,30.05,NW,306,4.5,5.0,39,0.00,,CLR,0.00,VWS V13.01,2013-09-05 20:42:00,
2013-09-05 16:47:00,83.7,56.1,30.05,NNE,19,5.0,7.3,39,0.00,,CLR,0.00,VWS V13.01,2013-09-05 20:47:00,
2013-09-05 16:52:00,83.5,55.9,30.05,North,3,3.9,6.2,39,0.00,,CLR,0.00,VWS V13.01,2013-09-05 20:52:00,
2013-09-05 16:57:00,83.3,55.8,30.05,North,0,3.9,4.5,39,0.00,,CLR,0.00,VWS V13.01,2013-09-05 20:57:00,
2013-09-05 17:02:00,82.9,55.5,30.05,West,271,7.8,7.8,39,0.00,,CLR,0.00,VWS V13.01,2013-09-05 21:02:00,
2013-09-05 17:07:00,82.8,55.3,30.05,WSW,257,5.0,7.8,39,0.00,,CLR,0.00,VWS V13.01,2013-09-05 21:07:00,
2013-09-05 17:12:00,82.2,54.8,30.05,NNE,20,6.7,6.7,39,0.00,,CLR,0.00,VWS V13.01,2013-09-05 21:12:00,
2013-09-05 17:17:00,81.7,54.3,30.05,North,357,3.4,6.2,39,0.00,,CLR,0.00,VWS V13.01,2013-09-05 21:17:00,
2013-09-05 17:22:00,81.3,54.0,30.05,NNE,12,7.3,7.8,39,0.00,,CLR,0.00,VWS V13.01,2013-09-05 21:22:00,
2013-09-05 17:27:00,81.0,53.7,30.05,NNE,12,5.0,7.8,39,0.00,,CLR,0.00,VWS V13.01,2013-09-05 21:27:00,
2013-09-05 17:32:00,80.8,53.5,30.05,WNW,286,3.4,3.9,39,0.00,,CLR,0.00,VWS V13.01,2013-09-05 21:32:00,
2013-09-05 17:37:00,80.6,53.4,30.05,WNW,284,4.5,6.2,39,0.00,,CLR,0.00,VWS V13.01,2013-09-05 21:37:00,
2013-09-05 17:42:00,80.6,53.4,30.05,NNE,13,4.5,4.5,39,0.00,,CLR,0.00,VWS V13.01,2013-09-05 21:42:00,
2013-09-05 17:47:00,80.4,53.9,30.05,NNW,333,3.4,6.7,40,0.00,,CLR,0.00,VWS V13.01,2013-09-05 21:47:00,
2013-09-05 17:52:00,80.1,53.6,30.05,WSW,256,5.0,6.7,40,0.00,,CLR,0.00,VWS V13.01,2013-09-05 21:52:00,
2013-09-05 17:57:00,79.7,53.3,30.05,West,265,5.0,7.8,40,0.00,,CLR,0.00,VWS V13.01,2013-09-05 21:57:00,
2013-09-05 18:02:00,79.5,54.4,30.05,West,261,6.2,6.7,42,0.00,,CLR,0.00,VWS V13.01,2013-09-05 22:02:00,
2013-09-05 18:07:00,79.3,54.3,30.05,North,8,3.9,7.3,42,0.00,,CLR,0.00,VWS V13.01,2013-09-05 22:07:00,
2013-09-05 18:12:00,79.2,52.8,30.05,North,3,7.8,10.1,40,0.00,,CLR,0.00,VWS V13.01,2013-09-05 22:12:00,
2013-09-05 18:17:00,78.8,52.5,30.05,North,6,7.8,9.5,40,0.00,,CLR,0.00,VWS V13.01,2013-09-05 22:17:00,
2013-09-05 18:22:00,78.4,52.1,30.05,NNE,24,5.0,6.2,40,0.00,,CLR,0.00,VWS V13.01,2013-09-05 22:22:00,
2013-09-05 18:27:00,78.3,52.0,30.08,NNE,27,6.7,6.7,40,0.00,,CLR,0.00,VWS V13.01,2013-09-05 22:27:00,
2013-09-05 18:32:00,77.9,53.6,30.08,North,357,4.5,6.7,43,0.00,,CLR,0.00,VWS V13.01,2013-09-05 22:32:00,
2013-09-05 18:37:00,77.5,51.3,30.08,North,357,6.2,10.1,40,0.00,,CLR,0.00,VWS V13.01,2013-09-05 22:37:00,
2013-09-05 18:42:00,77.2,51.0,30.08,North,8,6.2,9.5,40,0.00,,CLR,0.00,VWS V13.01,2013-09-05 22:42:00,
2013-09-05 18:47:00,76.8,52.7,30.08,North,0,4.5,7.8,43,0.00,,CLR,0.00,VWS V13.01,2013-09-05 22:47:00,
2013-09-05 18:52:00,76.6,52.5,30.08,NNW,336,7.3,7.3,43,0.00,,CLR,0.00,VWS V13.01,2013-09-05 22:52:00,
2013-09-05 18:57:00,76.1,52.0,30.08,North,353,6.7,10.1,43,0.00,,CLR,0.00,VWS V13.01,2013-09-05 22:57:00,
2013-09-05 19:02:00,75.9,51.8,30.08,North,357,6.2,7.3,43,0.00,,CLR,0.00,VWS V13.01,2013-09-05 23:02:00,
2013-09-05 19:07:00,75.4,51.3,30.08,North,357,6.7,7.3,43,0.00,,CLR,0.00,VWS V13.01,2013-09-05 23:07:00,
2013-09-05 19:12:00,75.0,51.0,30.08,NNE,15,7.8,7.8,43,0.00,,CLR,0.00,VWS V13.01,2013-09-05 23:12:00,
2013-09-05 19:17:00,74.7,50.7,30.08,North,0,7.3,7.8,43,0.00,,SCT070,0.00,VWS V13.01,2013-09-05 23:17:00,
2013-09-05 19:22:00,74.1,50.2,30.08,North,11,3.9,7.3,43,0.00,,SCT070,0.00,VWS V13.01,2013-09-05 23:22:00,
2013-09-05 19:27:00,73.8,49.9,30.08,North,353,5.0,6.7,43,0.00,,SCT070,0.00,VWS V13.01,2013-09-05 23:27:00,
2013-09-05 19:32:00,73.4,49.6,30.08,North,5,5.0,7.3,43,0.00,,SCT070,0.00,VWS V13.01,2013-09-05 23:32:00,
2013-09-05 19:37:00,72.9,49.7,30.08,North,2,6.2,7.8,44,0.00,,CLR,0.00,VWS V13.01,2013-09-05 23:37:00,
2013-09-05 19:42:00,72.5,49.4,30.08,North,353,6.2,6.7,44,0.00,,CLR,0.00,VWS V13.01,2013-09-05 23:42:00,
2013-09-05 19:47:00,72.1,49.0,30.08,NNW,337,7.3,7.3,44,0.00,,CLR,0.00,VWS V13.01,2013-09-05 23:47:00,
2013-09-05 19:52:00,71.8,49.9,30.08,North,3,6.7,7.3,46,0.00,,CLR,0.00,VWS V13.01,2013-09-05 23:52:00,
2013-09-05 19:57:00,71.4,50.2,30.08,North,7,4.5,7.8,47,0.00,,CLR,0.00,VWS V13.01,2013-09-05 23:57:00,
2013-09-05 20:02:00,71.2,50.0,30.08,NNE,20,4.5,7.8,47,0.00,,CLR,0.00,VWS V13.01,2013-09-06 00:02:00,
2013-09-05 20:07:00,71.1,49.8,30.08,NNW,339,7.3,9.5,47,0.00,,CLR,0.00,VWS V13.01,2013-09-06 00:07:00,
2013-09-05 20:12:00,70.9,49.7,30.08,North,6,7.3,7.3,47,0.00,,CLR,0.00,VWS V13.01,2013-09-06 00:12:00,
2013-09-05 20:17:00,70.7,49.5,30.08,North,2,3.4,6.2,47,0.00,,CLR,0.00,VWS V13.01,2013-09-06 00:17:00,
2013-09-05 20:22:00,70.5,49.3,30.08,North,5,5.0,5.0,47,0.00,,CLR,0.00,VWS V13.01,2013-09-06 00:22:00,
2013-09-05 20:27:00,70.2,49.0,30.11,North,8,3.4,5.0,47,0.00,,CLR,0.00,VWS V13.01,2013-09-06 00:27:00,
2013-09-05 20:32:00,69.8,48.7,30.11,NNE,18,3.9,4.5,47,0.00,,CLR,0.00,VWS V13.01,2013-09-06 00:32:00,
2013-09-05 20:37:00,69.4,48.9,30.11,North,9,3.4,4.5,48,0.00,,CLR,0.00,VWS V13.01,2013-09-06 00:37:00,
2013-09-05 20:42:00,69.1,48.6,30.11,North,8,3.4,4.5,48,0.00,,CLR,0.00,VWS V13.01,2013-09-06 00:42:00,
2013-09-05 20:47:00,68.7,48.8,30.11,NNE,21,3.4,6.2,49,0.00,,CLR,0.00,VWS V13.01,2013-09-06 00:47:00,
2013-09-05 20:52:00,68.5,48.6,30.11,North,10,2.8,4.5,49,0.00,,CLR,0.00,VWS V13.01,2013-09-06 00:52:00,
2013-09-05 20:57:00,68.4,49.0,30.11,North,6,3.4,4.5,50,0.00,,SCT065,0.00,VWS V13.01,2013-09-06 00:57:00,
2013-09-05 21:02:00,68.4,49.0,30.11,NNE,13,0.0,3.9,50,0.00,,SCT065,0.00,VWS V13.01,2013-09-06 01:02:00,
2013-09-05 21:07:00,68.4,49.0,30.11,North,3,2.8,3.9,50,0.00,,SCT065,0.00,VWS V13.01,2013-09-06 01:07:00,
2013-09-05 21:12:00,68.5,49.2,30.11,North,4,3.4,6.2,50,0.00,,SCT065,0.00,VWS V13.01,2013-09-06 01:12:00,
2013-09-05 21:17:00,68.5,49.2,30.11,North,0,3.4,5.0,50,0.00,,CLR,0.00,VWS V13.01,2013-09-06 01:17:00,
2013-09-05 21:22:00,68.5,49.2,30.11,North,5,0.0,3.4,50,0.00,,CLR,0.00,VWS V13.01,2013-09-06 01:22:00,
2013-09-05 21:27:00,68.4,49.0,30.11,North,357,3.4,4.5,50,0.00,,CLR,0.00,VWS V13.01,2013-09-06 01:27:00,
2013-09-05 21:32:00,68.2,48.8,30.11,North,357,2.8,3.9,50,0.00,,CLR,0.00,VWS V13.01,2013-09-06 01:32:00,
2013-09-05 21:37:00,67.8,49.0,30.11,North,357,0.0,3.9,51,0.00,,CLR,0.00,VWS V13.01,2013-09-06 01:37:00,
2013-09-05 21:42:00,67.5,49.2,30.11,North,5,2.8,3.9,52,0.00,,CLR,0.00,VWS V13.01,2013-09-06 01:42:00,
2013-09-05 21:47:00,67.1,49.4,30.11,North,0,0.0,3.4,53,0.00,,CLR,0.00,VWS V13.01,2013-09-06 01:47:00,
2013-09-05 21:52:00,66.7,49.1,30.11,North,357,0.0,0.0,53,0.00,,CLR,0.00,VWS V13.01,2013-09-06 01:52:00,
2013-09-05 21:57:00,66.7,49.1,30.14,North,357,0.0,0.0,53,0.00,,CLR,0.00,VWS V13.01,2013-09-06 01:57:00,
2013-09-05 22:02:00,66.4,49.2,30.14,NNW,344,0.0,0.0,54,0.00,,CLR,0.00,VWS V13.01,2013-09-06 02:02:00,
2013-09-05 22:07:00,66.0,48.9,30.14,NNW,332,0.0,0.0,54,0.00,,CLR,0.00,VWS V13.01,2013-09-06 02:07:00,
2013-09-05 22:12:00,65.7,48.6,30.14,NNW,332,0.0,0.0,54,0.00,,CLR,0.00,VWS V13.01,2013-09-06 02:12:00,
2013-09-05 22:17:00,65.5,48.9,30.14,NNE,26,0.0,2.8,55,0.00,,SCT065,0.00,VWS V13.01,2013-09-06 02:17:00,
2013-09-05 22:22:00,65.3,49.2,30.14,NNE,26,0.0,0.0,56,0.00,,SCT065,0.00,VWS V13.01,2013-09-06 02:22:00,
2013-09-05 22:27:00,65.1,49.0,30.14,NNE,26,0.0,0.0,56,0.00,,SCT065,0.00,VWS V13.01,2013-09-06 02:27:00,
2013-09-05 22:32:00,64.8,49.2,30.14,NNE,26,0.0,0.0,57,0.00,,SCT065,0.00,VWS V13.01,2013-09-06 02:32:00,
2013-09-05 22:37:00,64.4,48.8,30.14,NNE,26,0.0,0.0,57,0.00,,SCT050,0.00,VWS V13.01,2013-09-06 02:37:00,
2013-09-05 22:42:00,64.2,49.2,30.14,NW,321,0.0,0.0,58,0.00,,SCT050,0.00,VWS V13.01,2013-09-06 02:42:00,
2013-09-05 22:47:00,63.9,48.8,30.14,NW,321,0.0,0.0,58,0.00,,SCT050,0.00,VWS V13.01,2013-09-06 02:47:00,
2013-09-05 22:52:00,63.5,48.5,30.14,NW,321,0.0,0.0,58,0.00,,SCT050,0.00,VWS V13.01,2013-09-06 02:52:00,
2013-09-05 22:57:00,63.3,48.8,30.14,NW,321,0.0,0.0,59,0.00,,SCT050,0.00,VWS V13.01,2013-09-06 02:57:00,
2013-09-05 23:02:00,63.1,48.6,30.14,North,3,0.0,0.0,59,0.00,,SCT050,0.00,VWS V13.01,2013-09-06 03:02:00,
2013-09-05 23:07:00,63.0,48.4,30.14,North,3,0.0,0.0,59,0.00,,SCT050,0.00,VWS V13.01,2013-09-06 03:07:00,
2013-09-05 23:12:00,62.8,48.3,30.14,North,3,0.0,0.0,59,0.00,,SCT050,0.00,VWS V13.01,2013-09-06 03:12:00,
2013-09-05 23:17:00,62.6,48.1,30.14,NNW,333,2.8,2.8,59,0.00,,SCT050,0.00,VWS V13.01,2013-09-06 03:17:00,
2013-09-05 23:22:00,62.4,47.9,30.14,NW,321,0.0,3.4,59,0.00,,SCT050,0.00,VWS V13.01,2013-09-06 03:22:00,
2013-09-05 23:27:00,62.1,48.0,30.14,West,274,2.8,3.9,60,0.00,,SCT050,0.00,VWS V13.01,2013-09-06 03:27:00,
2013-09-05 23:32:00,62.1,48.0,30.14,West,265,0.0,3.9,60,0.00,,SCT050,0.00,VWS V13.01,2013-09-06 03:32:00,
2013-09-05 23:37:00,62.2,48.6,30.14,NW,307,0.0,0.0,61,0.00,,CLR,0.00,VWS V13.01,2013-09-06 03:37:00,
2013-09-05 23:42:00,62.1,48.5,30.14,North,7,2.8,2.8,61,0.00,,CLR,0.00,VWS V13.01,2013-09-06 03:42:00,
2013-09-05 23:47:00,62.1,48.9,30.14,North,7,0.0,3.4,62,0.00,,CLR,0.00,VWS V13.01,2013-09-06 03:47:00,
2013-09-05 23:52:00,61.9,49.2,30.14,North,2,3.9,3.9,63,0.00,,CLR,0.00,VWS V13.01,2013-09-06 03:52:00,
2013-09-05 23:57:00,61.9,49.6,30.14,North,357,3.9,3.9,64,0.00,,CLR,0.00,VWS V13.01,2013-09-06 03:57:00,